Location: Newark
(49.8667°N, 1.1500°E)
Time: 02:04:28
(UTC+00:00)

Envisat - Visible Passes

Search period start: 21 January 2020 00:00
Search period end: 31 January 2020 00:00
Orbit: 764 x 766 km, 98.1° (Epoch: 20 January)

Date Brightness Start Highest point End Pass type
(mag) Time Alt. Az. Time Alt. Az. Time Alt. Az.
21 Jan 6.0 05:22:30 10° NE 05:25:39 16° E 05:28:46 10° SE visible
21 Jan 3.0 07:00:12 10° NNE 07:05:18 80° WNW 07:10:23 10° SSW visible
21 Jan 4.5 18:19:39 10° SSW 18:24:25 39° W 18:29:12 10° NNW visible
22 Jan 4.0 06:23:29 10° NNE 06:28:28 52° E 06:33:24 10° S visible
22 Jan 3.2 17:42:25 10° S 17:47:30 79° WSW 17:52:37 10° NNW visible
22 Jan 6.3 19:25:24 10° WSW 19:27:22 12° W 19:29:21 10° WNW visible
23 Jan 5.3 05:47:11 10° NE 05:51:26 26° E 05:55:40 10° SSE visible
23 Jan 3.1 17:05:51 10° SE 17:10:47 53° ENE 17:15:43 10° N visible
23 Jan 5.3 18:45:59 10° SSW 18:50:06 25° W 18:54:16 10° NW visible
24 Jan 6.2 05:11:51 10° ENE 05:14:11 13° E 05:16:31 10° ESE visible
24 Jan 3.1 06:48:53 10° NNE 06:54:01 85° ESE 06:59:06 10° SSW visible
24 Jan 4.1 18:08:09 10° S 18:13:04 48° W 18:18:00 10° NNW visible
25 Jan 4.4 06:12:17 10° NNE 06:17:07 42° E 06:21:56 10° SSE visible
25 Jan 3.0 17:31:07 10° SSE 17:36:12 85° ENE 17:41:20 10° NNW visible
25 Jan 6.0 19:13:01 10° WSW 19:15:55 15° W 19:18:49 10° NW visible
26 Jan 5.7 05:36:09 10° NE 05:40:01 21° E 05:43:53 10° SE visible
26 Jan 5.0 18:34:16 10° SSW 18:38:43 30° W 18:43:10 10° NNW visible
27 Jan 6.5 05:02:01 10° ENE 05:02:43 10° E 05:03:25 10° E visible
27 Jan 3.4 06:37:36 10° NNE 06:42:43 69° ESE 06:47:46 10° S visible
27 Jan 3.6 17:56:42 10° S 18:01:43 60° W 18:06:46 10° NNW visible
28 Jan 4.8 06:01:07 10° NNE 06:05:45 34° E 06:10:22 10° SSE visible
28 Jan 3.0 17:19:53 10° SSE 17:24:55 70° ENE 17:30:00 10° N visible
28 Jan 5.8 19:00:57 10° SW 19:04:29 19° W 19:08:01 10° NW visible
29 Jan 6.0 05:25:13 10° NE 05:28:36 18° E 05:31:58 10° SE visible
29 Jan 4.7 18:22:39 10° SSW 18:27:20 36° W 18:32:02 10° NNW visible
30 Jan 3.8 06:26:21 10° NNE 06:31:23 56° E 06:36:22 10° S visible
30 Jan 3.3 17:45:20 10° S 17:50:24 74° WSW 17:55:31 10° NNW visible
30 Jan 6.4 19:28:55 10° W 19:30:20 11° W 19:31:45 10° WNW visible
